Flag for Canada Weather past 2 weeks in Winnipeg, Manitoba, Canada

Now
55 °F

Clear.


Feels Like: 53 °F
Forecast: 48 / 70 °F
Wind: 8 mph from West

Location: Winnipeg Int. Airportman.

Current Time: Sep 1, 2014 at 10:28:53 PM

Latest Report: Sep 1, 2014 at 10:00 PM


Visibility: 15 mi

Pressure: 29.71 "Hg

Humidity: 77%

Dew point: 48 °F

Location of WinnipegLocation

Historic Weather in Winnipeg — Graph

°F

Winnipeg temperature yesterday

Maximum temperature yesterday: 64 °F (at 6:00 PM)
Minimum temperature yesterday: 57 °F (at 2:00 AM)
Average temperature yesterday: 60 °F

Past Weeks' High & Low Weather Summary

 TemperatureHumidityPressure
High84 °F (Aug 20, 4:00 PM)100% (Aug 18, 1:00 AM)30.20 "Hg (Aug 18, 1:00 AM)
Low39 °F (Aug 30, 7:00 AM)39% (Aug 27, 3:00 PM)29.53 "Hg (Aug 31, 3:00 PM)
Average64 °F83%29.85 "Hg
* Reported Aug 17 9:00 PM — Sep 1 9:00 PM, Winnipeg, Weather by CustomWeather, © 2014

Note: Actual official high and low records may vary slightly from our data, if they occured in-between our weather recording intervals... More about our weather records

Advertising

Winnipeg weather history for previous 24 hours

 ConditionsComfort  
Time TempWeatherWind HumidityBarometerVisibility
9:00 PM
Sep 1
59 °FPassing clouds.8 mph72%29.69 "Hg15 mi
8:00 PM61 °FPassing clouds.8 mph72%29.68 "Hg15 mi
7:00 PM70 °FPassing clouds.5 mph60%29.67 "Hg15 mi
6:00 PM70 °FScattered clouds.8 mph57%29.67 "Hg15 mi
5:00 PM68 °FScattered clouds.8 mph56%29.67 "Hg15 mi
4:00 PM73 °FBroken clouds.15 mph50%29.65 "Hg15 mi
3:00 PM73 °FScattered clouds.15 mph44%29.65 "Hg15 mi
2:00 PM73 °FScattered clouds.13 mph50%29.66 "Hg15 mi
1:00 PM73 °FScattered clouds.9 mph53%29.66 "Hg15 mi
12:00 PM70 °FScattered clouds.8 mph64%29.66 "Hg15 mi
11:00 AM68 °FPassing clouds.6 mph64%29.66 "Hg15 mi
10:00 AM64 °FPassing clouds.6 mph78%29.66 "Hg15 mi
9:00 AM59 °FPassing clouds.7 mph88%29.67 "Hg15 mi
8:00 AM52 °FScattered clouds.5 mph100%29.67 "Hg15 mi
7:00 AM48 °FPassing clouds.8 mph100%29.66 "Hg15 mi
6:00 AM50 °FPassing clouds.6 mph100%29.66 "Hg15 mi
5:00 AM50 °FPassing clouds.5 mph100%29.66 "Hg15 mi
4:00 AM54 °FFog.5 mph94%29.67 "Hg1 mi
3:00 AM55 °FFog.7 mph94%29.66 "Hg1 mi
2:00 AM55 °FFog.6 mph100%29.65 "Hg6 mi
1:53 AM55 °FFog.7 mph100%29.66 "Hg6 mi
1:00 AM59 °FPassing clouds.6 mph94%29.65 "Hg15 mi
12:00 AM57 °FPassing clouds.6 mph100%29.62 "Hg15 mi
11:00 PM
Aug 31
59 °FPassing clouds.6 mph100%29.62 "Hg15 mi
10:00 PM61 °FPartly cloudy.6 mph94%29.60 "Hg15 mi
Weather by CustomWeather, © 2014

See weather overviewHow to use our weather pages